Regional Weather Roundup
Issued by NWS

Home | Current Version | Previous Version | Text Only | Print | Product List | Glossary On
Versions: 1 2 3 4 5 6 7 8 9 10 11 12 13 14 15 16 17 18 19 20 21 22 23 24 25 26 27 28 29 30 31 32 33 34 35 36 37 38 39 40 41 42 43 44 45 46 47 48 49 50
000
ASUS43 KLOT 301308
RWRIL

ILLINOIS REGIONAL WEATHER ROUNDUP
NATIONAL WEATHER SERVICE CHICAGO/ROMEOVILLE IL
800 AM CDT TUE AUG 30 2016

NOTE: "FAIR" INDICATES FEW OR NO CLOUDS BELOW 12,000 FEET WITH NO
SIGNIFICANT WEATHER AND/OR OBSTRUCTIONS TO VISIBILITY.

* THESE STATIONS ARE NOT UNDER NWS QUALITY CONTROL. THEY ALSO MAY NOT
  REPORT WEATHER SUCH AS PRECIPITATION OR FOG.

ILZ001-002-007-009-015-016-024-301400-
NORTHWEST ILLINOIS

CITY           SKY/WX    TMP DP  RH WIND       PRES   REMARKS
MOLINE         CLOUDY    71  69  93 CALM      30.15F
STERLING*      LGT RAIN  69  69 100 SW3       30.19R
SAVANNA*       DRIZZLE   70  69  98 SE3       30.16F
$$

ILZ003-004-008-010-011-017-018-301400-
NORTH CENTRAL ILLINOIS

CITY           SKY/WX    TMP DP  RH WIND       PRES   REMARKS
ROCKFORD       LGT RAIN  70  67  90 W5        30.18R
FREEPORT*      LGT RAIN  68  68  99 CALM      30.20R
ROCHELLE*      MOSUNNY   68  68  99 CALM      30.18S
DE KALB*       PTSUNNY   70  68  94 NW6       30.17F
$$

ILZ005-006-012>014-019>023-301400-
NORTHEAST ILLINOIS

CITY           SKY/WX    TMP DP  RH WIND       PRES   REMARKS
CHICAGO-OHARE  LGT RAIN  71  70  96 CALM      30.15F
CHICAGO-MIDWAY TSTM      75  72  90 S7        30.14F FOG
AURORA         LGT RAIN  70  68  93 NW6       30.16F FOG
LANSING*       RAIN      73  73 100 W5        30.17R
JOLIET*        RAIN      71  71  99 SE5       30.15F
WAUKEGAN       CLOUDY    73  71  93 SW3       30.14F FOG
DUPAGE AIRPORT LGT RAIN  70  68  93 NW3       30.15S
KANKAKEE*      LGT RAIN  70  69  96 N6        30.17F
WHEELING       CLOUDY    73  72  96 SE5       30.16S THUNDER FOG
MORRIS*        LGT RAIN  69  68  98 CALM      30.14F
ROMEOVILLE*    RAIN      70  70 100 SE9       30.14F
$$

LMZ740>746-301400-
SOUTHERN LAKE MICHIGAN

STATION/POSITION SKY/WX   TEMP    WIND        PRES    VSBY  WAVE
                          AIR SEA DIR/SP/G                  HT/PER
                          (F)     (DEG/KT/KT) (MB)    (MI)  (FT/S)
SOUTHERN BUOY              75 76  160/ 14/ 16 1020.0F         0
WILMETTE HARBOR            73 75  160/  8/ 10   N/A           1
HARRISON CRIB              76     300/  3/  4   N/A
BURNHAM HARBOR             73      10/  3/  8   N/A
CALUMET HARBOR             74     150/  3/  5 1020.5R
BURNS HARBOR               73     100/  5/  9 1021.7S
MICHIGAN CITY              72      80/  7/  8   N/A
MICHIGAN CITY 6N           73 74  120/  8/ 10   N/A           1/ 2
ST. JOSEPH                 70 69   50/ 12/ 16 1021.3R         1
$$

ILZ025>027-034>036-040-047-049-050-058-095>099-301400-
WEST-CENTRAL ILLINOIS

CITY           SKY/WX    TMP DP  RH WIND       PRES   REMARKS
QUINCY         MOSUNNY   73  71  93 N3        30.15R FOG
GALESBURG*     PTSUNNY   70  69  97 NE6       30.16S
MACOMB*        CLOUDY    71  71 100 NE5       30.19R FOG
JACKSONVILLE*  PTSUNNY   75  71  87 W5        30.15R
PITTSFIELD*    PTSUNNY   74  73  96 CALM      30.16S FOG
$$

ILZ028>032-037-038-041>044-048-051>054-059>061-301400-
CENTRAL ILLINOIS

CITY           SKY/WX    TMP DP  RH WIND       PRES   REMARKS
PONTIAC        RAIN      70  70 100 CALM      30.18F
BLOOMINGTON    CLOUDY    70  68  93 NE10      30.19S
DECATUR        SUNNY     75  72  90 CALM      30.16S FOG
PEORIA         RAIN      71  71 100 NE6       30.17R FOG
LACON*         CLOUDY    68  67  96 CALM      30.18R
LINCOLN*       SUNNY     74  72  94 NE7       30.17S
SPRINGFIELD    SUNNY     77  73  87 CALM      30.15S
TAYLORVILLE    SUNNY     73  73  99 CALM      30.15S
$$

ILZ033-039-045-046-055>057-062-063-301400-
EAST-CENTRAL ILLINOIS

CITY           SKY/WX    TMP DP  RH WIND       PRES   REMARKS
CHAMPAIGN      SUNNY     76  73  91 CALM      30.17R FOG
RANTOUL*       PTSUNNY   73  69  89 N13G21    30.19R
MATTOON        SUNNY     75  71  87 CALM      30.15S
PARIS*         SUNNY     74  73  98 CALM      30.17S
$$

ILZ079-100>102-301400-
SOUTHWEST ILLINOIS

CITY           SKY/WX    TMP DP  RH WIND       PRES   REMARKS
ALTON          MOSUNNY   72  72 100 CALM      30.15S FOG
BELLEVILLE     SUNNY     76  76  99 NE2       30.13S
CAHOKIA*       SUNNY     77  72  84 CALM      30.13S
SPARTA*        SUNNY     74  73  96 CALM      30.15R
$$

ILZ064>066-069>071-074>076-080>082-084>086-088>090-092>094-301400-
SOUTH-CENTRAL ILLINOIS

CITY           SKY/WX    TMP DP  RH WIND       PRES   REMARKS
CARBONDALE     SUNNY     74  72  93 CALM      30.13S FOG
CAIRO*         SUNNY     75  73  93 CALM      30.12R
EFFINGHAM*     SUNNY     74  74 100 CALM      30.16F
MARION         SUNNY     75  73  94 CALM      30.14R
MT. VERNON     SUNNY     73  68  83 NE3       30.15S
CENTRALIA*     SUNNY     74  74 100 CALM      30.14R FOG
SALEM*         SUNNY     76  73  87 CALM      30.15S
METROPOLIS*    SUNNY     77  73  88 CALM      30.12S
$$

ILZ067-068-072-073-078-083-087-091-301400-
SOUTHEAST ILLINOIS

CITY           SKY/WX    TMP DP  RH WIND       PRES   REMARKS
LAWRENCEVILLE  SUNNY     76  76 100 NE6       30.14S
FLORA*         SUNNY     75  73  92 CALM      30.15R
FAIRFIELD*       N/A     74  73  95 CALM      30.13S
HARRISBURG*    SUNNY     76  73  93 CALM      30.13S
ROBINSON*      SUNNY     73  73 100 CALM      30.16S
CARMI*         SUNNY     74  73  98 CALM      30.13R
$$

ABBREVIATIONS USED IN REMARKS
   TC - TEMPERATURE IN CELSIUS
  WCI - WIND CHILL INDEX
   HX - HEAT INDEX
  VSB - VISIBILITY
$$





USA.gov is the U.S. government's official web portal to all federal, state and local government web resources and services.